Time,TemperatureF,DewpointF,PressureIn,WindDirection,WindDirectionDegrees,WindSpeedMPH,WindSpeedGustMPH,Humidity,HourlyPrecipIn,Conditions,Clouds,dailyrainin,SoftwareType,DateUTC
2013-02-05 00:01:00,34.0,30.0,29.98,ENE,60,0.0,-999.0,85,-99.99,,,-99.99,,2013-02-05 08:01:00,
2013-02-05 00:11:00,34.0,30.0,29.98,ENE,60,0.0,-999.0,85,-99.99,,,-99.99,,2013-02-05 08:11:00,
2013-02-05 00:21:00,34.0,30.0,29.98,ENE,60,0.0,-999.0,86,-99.99,,,-99.99,,2013-02-05 08:21:00,
2013-02-05 00:31:00,33.0,30.0,29.96,ENE,60,0.0,-999.0,87,-99.99,,,-99.99,,2013-02-05 08:31:00,
2013-02-05 00:41:00,33.0,30.0,29.96,ENE,60,0.0,-999.0,87,-99.99,,,-99.99,,2013-02-05 08:41:00,
2013-02-05 00:52:00,32.0,29.0,29.96,East,101,0.0,-999.0,87,-99.99,,,-99.99,,2013-02-05 08:52:00,
2013-02-05 01:02:00,33.0,30.0,29.96,ENE,74,1.0,-999.0,87,-99.99,,,-99.99,,2013-02-05 09:02:00,
2013-02-05 01:11:00,33.0,30.0,29.97,ENE,74,0.0,-999.0,87,-99.99,,,-99.99,,2013-02-05 09:11:00,
2013-02-05 01:21:00,33.0,30.0,29.97,ENE,74,0.0,-999.0,87,-99.99,,,-99.99,,2013-02-05 09:21:00,
2013-02-05 01:31:00,33.0,30.0,29.97,ENE,74,0.0,-999.0,87,-99.99,,,-99.99,,2013-02-05 09:31:00,
2013-02-05 01:42:00,33.0,30.0,29.97,ENE,74,0.0,-999.0,87,-99.99,,,-99.99,,2013-02-05 09:42:00,
2013-02-05 01:51:00,32.0,29.0,29.96,ENE,74,0.0,-999.0,87,-99.99,,,-99.99,,2013-02-05 09:51:00,
2013-02-05 02:01:00,32.0,29.0,29.96,ENE,74,0.0,-999.0,87,-99.99,,,-99.99,,2013-02-05 10:01:00,
2013-02-05 02:11:00,31.0,28.0,29.95,ENE,74,0.0,-999.0,90,-99.99,,,-99.99,,2013-02-05 10:11:00,
2013-02-05 02:21:00,31.0,28.0,29.95,ENE,74,0.0,-999.0,90,-99.99,,,-99.99,,2013-02-05 10:21:00,
2013-02-05 02:31:00,32.0,29.0,29.95,ENE,74,0.0,-999.0,90,-99.99,,,-99.99,,2013-02-05 10:31:00,
2013-02-05 02:42:00,32.0,29.0,29.95,ENE,74,0.0,-999.0,90,-99.99,,,-99.99,,2013-02-05 10:42:00,
2013-02-05 02:52:00,32.0,29.0,29.95,ENE,74,0.0,-999.0,90,-99.99,,,-99.99,,2013-02-05 10:52:00,
2013-02-05 03:01:00,33.0,30.0,29.94,ENE,76,0.0,-999.0,89,-99.99,,,-99.99,,2013-02-05 11:01:00,
2013-02-05 03:11:00,33.0,30.0,29.94,ENE,76,0.0,-999.0,89,-99.99,,,-99.99,,2013-02-05 11:11:00,
2013-02-05 03:22:00,32.0,29.0,29.93,East,92,0.0,-999.0,89,-99.99,,,-99.99,,2013-02-05 11:22:00,
2013-02-05 03:32:00,32.0,29.0,29.93,North,11,1.0,-999.0,90,-99.99,,,-99.99,,2013-02-05 11:32:00,
2013-02-05 03:41:00,32.0,29.0,29.93,North,11,1.0,-999.0,90,-99.99,,,-99.99,,2013-02-05 11:41:00,
2013-02-05 03:52:00,32.0,29.0,29.93,ENE,78,0.0,-999.0,88,-99.99,,,-99.99,,2013-02-05 11:52:00,
2013-02-05 04:01:00,32.0,29.0,29.93,SE,134,1.0,-999.0,88,-99.99,,,-99.99,,2013-02-05 12:01:00,
2013-02-05 04:12:00,32.0,29.0,29.93,SE,134,1.0,-999.0,88,-99.99,,,-99.99,,2013-02-05 12:12:00,
2013-02-05 04:21:00,33.0,30.0,29.92,SE,138,0.0,-999.0,87,-99.99,,,-99.99,,2013-02-05 12:21:00,
2013-02-05 04:31:00,33.0,30.0,29.93,NE,41,0.0,-999.0,87,-99.99,,,-99.99,,2013-02-05 12:31:00,
2013-02-05 04:41:00,33.0,30.0,29.93,NE,41,0.0,-999.0,87,-99.99,,,-99.99,,2013-02-05 12:41:00,
2013-02-05 04:52:00,33.0,30.0,29.93,East,79,1.0,-999.0,87,-99.99,,,-99.99,,2013-02-05 12:52:00,
2013-02-05 05:01:00,34.0,31.0,29.93,ESE,115,0.0,-999.0,87,-99.99,,,-99.99,,2013-02-05 13:01:00,
2013-02-05 05:11:00,34.0,31.0,29.93,ESE,115,0.0,-999.0,87,-99.99,,,-99.99,,2013-02-05 13:11:00,
2013-02-05 05:21:00,34.0,30.0,29.93,ESE,115,0.0,-999.0,86,-99.99,,,-99.99,,2013-02-05 13:21:00,
2013-02-05 05:31:00,34.0,31.0,29.93,ESE,115,0.0,-999.0,87,-99.99,,,-99.99,,2013-02-05 13:31:00,
2013-02-05 05:41:00,34.0,31.0,29.93,ESE,115,0.0,-999.0,87,-99.99,,,-99.99,,2013-02-05 13:41:00,
2013-02-05 05:51:00,34.0,31.0,29.91,SE,131,0.0,-999.0,87,-99.99,,,-99.99,,2013-02-05 13:51:00,
2013-02-05 06:01:00,35.0,31.0,29.88,WSW,257,2.0,-999.0,84,-99.99,,,-99.99,,2013-02-05 14:01:00,
2013-02-05 06:12:00,35.0,31.0,29.88,WSW,257,2.0,-999.0,84,-99.99,,,-99.99,,2013-02-05 14:12:00,
2013-02-05 06:21:00,36.0,31.0,29.88,ENE,62,1.0,-999.0,82,-99.99,,,-99.99,,2013-02-05 14:21:00,
2013-02-05 06:31:00,35.0,30.0,29.90,SW,216,1.0,-999.0,83,-99.99,,,-99.99,,2013-02-05 14:31:00,
2013-02-05 06:42:00,35.0,30.0,29.90,SW,216,1.0,-999.0,83,-99.99,,,-99.99,,2013-02-05 14:42:00,
2013-02-05 06:52:00,34.0,30.0,29.90,ENE,77,3.0,-999.0,85,-99.99,,,-99.99,,2013-02-05 14:52:00,
2013-02-05 07:01:00,34.0,30.0,29.90,SE,137,1.0,-999.0,84,-99.99,,,-99.99,,2013-02-05 15:01:00,
2013-02-05 07:11:00,34.0,30.0,29.90,SE,137,1.0,-999.0,84,-99.99,,,-99.99,,2013-02-05 15:11:00,
2013-02-05 07:21:00,34.0,30.0,29.90,ESE,119,0.0,-999.0,84,-99.99,,,-99.99,,2013-02-05 15:21:00,
2013-02-05 07:32:00,34.0,30.0,29.90,ESE,119,0.0,-999.0,84,-99.99,,,-99.99,,2013-02-05 15:32:00,
2013-02-05 07:41:00,34.0,30.0,29.90,ESE,119,0.0,-999.0,84,-99.99,,,-99.99,,2013-02-05 15:41:00,
2013-02-05 07:52:00,32.0,29.0,29.90,SE,140,0.0,-999.0,87,-99.99,,,-99.99,,2013-02-05 15:52:00,
2013-02-05 08:01:00,32.0,29.0,29.91,SE,140,0.0,-999.0,88,-99.99,,,-99.99,,2013-02-05 16:01:00,
2013-02-05 08:11:00,32.0,29.0,29.91,SE,140,0.0,-999.0,88,-99.99,,,-99.99,,2013-02-05 16:11:00,
2013-02-05 08:22:00,33.0,30.0,29.91,SE,140,0.0,-999.0,88,-99.99,,,-99.99,,2013-02-05 16:22:00,
2013-02-05 08:32:00,33.0,30.0,29.92,SE,140,0.0,-999.0,87,-99.99,,,-99.99,,2013-02-05 16:32:00,
2013-02-05 08:42:00,33.0,30.0,29.92,SE,140,0.0,-999.0,87,-99.99,,,-99.99,,2013-02-05 16:42:00,
2013-02-05 08:51:00,33.0,30.0,29.92,SE,140,0.0,-999.0,87,-99.99,,,-99.99,,2013-02-05 16:51:00,
2013-02-05 09:01:00,35.0,30.0,29.91,SSW,193,1.0,-999.0,82,-99.99,,,-99.99,,2013-02-05 17:01:00,
2013-02-05 09:11:00,35.0,30.0,29.91,SSW,193,1.0,-999.0,82,-99.99,,,-99.99,,2013-02-05 17:11:00,
2013-02-05 09:21:00,37.0,31.0,29.91,West,265,0.0,-999.0,79,-99.99,,,-99.99,,2013-02-05 17:21:00,
2013-02-05 09:32:00,38.0,31.0,29.91,West,267,0.0,-999.0,77,-99.99,,,-99.99,,2013-02-05 17:32:00,
2013-02-05 09:41:00,38.0,31.0,29.91,West,267,0.0,-999.0,77,-99.99,,,-99.99,,2013-02-05 17:41:00,
2013-02-05 09:52:00,39.0,32.0,29.91,NE,52,0.0,-999.0,76,-99.99,,,-99.99,,2013-02-05 17:52:00,
2013-02-05 10:01:00,40.0,32.0,29.91,NNE,29,0.0,-999.0,74,-99.99,,,-99.99,,2013-02-05 18:01:00,
2013-02-05 10:11:00,40.0,32.0,29.91,NNE,29,0.0,-999.0,74,-99.99,,,-99.99,,2013-02-05 18:11:00,
2013-02-05 10:21:00,40.0,31.0,29.91,SW,226,0.0,-999.0,71,-99.99,,,-99.99,,2013-02-05 18:21:00,
2013-02-05 10:32:00,41.0,33.0,29.90,ENE,61,0.0,-999.0,72,-99.99,,,-99.99,,2013-02-05 18:32:00,
2013-02-05 10:42:00,41.0,33.0,29.90,ENE,61,0.0,-999.0,72,-99.99,,,-99.99,,2013-02-05 18:42:00,
2013-02-05 10:51:00,42.0,33.0,29.90,ENE,68,0.0,-999.0,70,-99.99,,,-99.99,,2013-02-05 18:51:00,
2013-02-05 11:02:00,43.0,33.0,29.89,ENE,64,0.0,-999.0,68,-99.99,,,-99.99,,2013-02-05 19:02:00,
2013-02-05 11:11:00,43.0,33.0,29.89,ENE,64,0.0,-999.0,68,-99.99,,,-99.99,,2013-02-05 19:11:00,
2013-02-05 11:21:00,44.0,34.0,29.88,East,94,0.0,-999.0,67,-99.99,,,-99.99,,2013-02-05 19:21:00,
2013-02-05 11:31:00,45.0,34.0,29.88,West,262,0.0,-999.0,66,-99.99,,,-99.99,,2013-02-05 19:31:00,
2013-02-05 11:42:00,45.0,34.0,29.88,West,262,0.0,-999.0,66,-99.99,,,-99.99,,2013-02-05 19:42:00,
2013-02-05 11:51:00,44.0,34.0,29.88,NW,306,2.0,-999.0,67,-99.99,,,-99.99,,2013-02-05 19:51:00,
2013-02-05 12:01:00,43.0,34.0,29.87,WNW,292,1.0,-999.0,70,-99.99,,,-99.99,,2013-02-05 20:01:00,
2013-02-05 12:11:00,43.0,34.0,29.87,WNW,292,1.0,-999.0,70,-99.99,,,-99.99,,2013-02-05 20:11:00,
2013-02-05 12:21:00,42.0,34.0,29.88,NNE,17,2.0,-999.0,73,-99.99,,,-99.99,,2013-02-05 20:21:00,
2013-02-05 12:32:00,42.0,34.0,29.88,NW,311,1.0,-999.0,72,-99.99,,,-99.99,,2013-02-05 20:32:00,
2013-02-05 12:41:00,42.0,34.0,29.88,NW,311,1.0,-999.0,72,-99.99,,,-99.99,,2013-02-05 20:41:00,
2013-02-05 12:52:00,43.0,34.0,29.87,East,89,1.0,-999.0,71,-99.99,,,-99.99,,2013-02-05 20:52:00,
2013-02-05 13:01:00,44.0,35.0,29.86,SE,132,0.0,-999.0,70,-99.99,,,-99.99,,2013-02-05 21:01:00,
2013-02-05 13:11:00,44.0,35.0,29.86,SE,132,0.0,-999.0,70,-99.99,,,-99.99,,2013-02-05 21:11:00,
2013-02-05 13:21:00,45.0,35.0,29.85,SSW,205,0.0,-999.0,68,-99.99,,,-99.99,,2013-02-05 21:21:00,
2013-02-05 13:31:00,43.0,34.0,29.85,SSW,200,1.0,-999.0,69,-99.99,,,-99.99,,2013-02-05 21:31:00,
2013-02-05 13:41:00,43.0,34.0,29.85,SSW,200,1.0,-999.0,69,-99.99,,,-99.99,,2013-02-05 21:41:00,
2013-02-05 13:51:00,43.0,34.0,29.85,SSW,199,1.0,-999.0,71,-99.99,,,-99.99,,2013-02-05 21:51:00,
2013-02-05 14:01:00,44.0,35.0,29.85,SW,221,1.0,-999.0,71,-99.99,,,-99.99,,2013-02-05 22:01:00,
2013-02-05 14:11:00,44.0,35.0,29.85,SW,221,1.0,-999.0,71,-99.99,,,-99.99,,2013-02-05 22:11:00,
2013-02-05 14:21:00,45.0,35.0,29.85,SW,215,1.0,-999.0,69,-99.99,,,-99.99,,2013-02-05 22:21:00,
2013-02-05 14:31:00,44.0,34.0,29.85,SW,225,3.0,-999.0,69,-99.99,,,-99.99,,2013-02-05 22:31:00,
2013-02-05 14:41:00,44.0,34.0,29.85,SW,225,3.0,-999.0,69,-99.99,,,-99.99,,2013-02-05 22:41:00,
2013-02-05 14:51:00,44.0,34.0,29.86,WNW,282,1.0,-999.0,69,-99.99,,,-99.99,,2013-02-05 22:51:00,
2013-02-05 15:01:00,44.0,34.0,29.86,WNW,282,1.0,-999.0,69,-99.99,,,-99.99,,2013-02-05 23:01:00,
2013-02-05 15:11:00,44.0,34.0,29.86,WNW,282,1.0,-999.0,69,-99.99,,,-99.99,,2013-02-05 23:11:00,
2013-02-05 15:21:00,44.0,34.0,29.88,East,98,0.0,-999.0,69,-99.99,,,-99.99,,2013-02-05 23:21:00,
2013-02-05 15:32:00,44.0,34.0,29.88,East,98,0.0,-999.0,69,-99.99,,,-99.99,,2013-02-05 23:32:00,
2013-02-05 15:41:00,44.0,34.0,29.88,East,98,0.0,-999.0,69,-99.99,,,-99.99,,2013-02-05 23:41:00,
2013-02-05 15:52:00,43.0,35.0,29.89,NW,317,1.0,-999.0,72,-99.99,,,-99.99,,2013-02-05 23:52:00,
2013-02-05 16:01:00,43.0,35.0,29.90,ENE,73,0.0,-999.0,73,-99.99,,,-99.99,,2013-02-06 00:01:00,
2013-02-05 16:11:00,43.0,35.0,29.90,ENE,73,0.0,-999.0,73,-99.99,,,-99.99,,2013-02-06 00:11:00,
2013-02-05 16:21:00,42.0,35.0,29.89,East,81,2.0,-999.0,77,-99.99,,,-99.99,,2013-02-06 00:21:00,
2013-02-05 16:32:00,42.0,35.0,29.89,East,81,2.0,-999.0,77,-99.99,,,-99.99,,2013-02-06 00:32:00,
2013-02-05 16:41:00,42.0,35.0,29.89,East,81,2.0,-999.0,77,-99.99,,,-99.99,,2013-02-06 00:41:00,
2013-02-05 16:51:00,42.0,34.0,29.90,ESE,123,1.0,-999.0,74,-99.99,,,-99.99,,2013-02-06 00:51:00,
2013-02-05 17:01:00,41.0,35.0,29.90,West,278,2.0,-999.0,78,-99.99,,,-99.99,,2013-02-06 01:01:00,
2013-02-05 17:11:00,41.0,35.0,29.90,West,278,2.0,-999.0,78,-99.99,,,-99.99,,2013-02-06 01:11:00,
2013-02-05 17:21:00,40.0,35.0,29.90,NE,44,0.0,-999.0,81,-99.99,,,-99.99,,2013-02-06 01:21:00,
2013-02-05 17:32:00,40.0,34.0,29.90,NNE,25,1.0,-999.0,78,-99.99,,,-99.99,,2013-02-06 01:32:00,
2013-02-05 17:41:00,40.0,34.0,29.90,NNE,25,1.0,-999.0,78,-99.99,,,-99.99,,2013-02-06 01:41:00,
2013-02-05 17:52:00,40.0,34.0,29.91,SSW,196,0.0,-999.0,79,-99.99,,,-99.99,,2013-02-06 01:52:00,
2013-02-05 18:01:00,40.0,34.0,29.91,East,82,1.0,-999.0,80,-99.99,,,-99.99,,2013-02-06 02:01:00,
2013-02-05 18:11:00,40.0,34.0,29.91,East,82,1.0,-999.0,80,-99.99,,,-99.99,,2013-02-06 02:11:00,
2013-02-05 18:21:00,39.0,33.0,29.90,East,98,1.0,-999.0,79,-99.99,,,-99.99,,2013-02-06 02:21:00,
2013-02-05 18:31:00,38.0,33.0,29.90,East,94,4.0,-999.0,81,-99.99,,,-99.99,,2013-02-06 02:31:00,
2013-02-05 18:41:00,38.0,33.0,29.90,East,94,4.0,-999.0,81,-99.99,,,-99.99,,2013-02-06 02:41:00,
2013-02-05 18:52:00,38.0,32.0,29.91,ESE,114,1.0,-999.0,80,-99.99,,,-99.99,,2013-02-06 02:52:00,
2013-02-05 19:02:00,36.0,32.0,29.91,ESE,104,2.0,-999.0,84,-99.99,,,-99.99,,2013-02-06 03:02:00,
2013-02-05 19:11:00,36.0,32.0,29.91,ESE,104,2.0,-999.0,84,-99.99,,,-99.99,,2013-02-06 03:11:00,
2013-02-05 19:21:00,36.0,32.0,29.91,ESE,104,2.0,-999.0,84,-99.99,,,-99.99,,2013-02-06 03:21:00,
2013-02-05 19:32:00,36.0,31.0,29.91,East,85,3.0,-999.0,83,-99.99,,,-99.99,,2013-02-06 03:32:00,
2013-02-05 19:42:00,36.0,31.0,29.91,East,85,3.0,-999.0,83,-99.99,,,-99.99,,2013-02-06 03:42:00,
2013-02-05 19:52:00,36.0,31.0,29.91,East,86,3.0,-999.0,82,-99.99,,,-99.99,,2013-02-06 03:52:00,
2013-02-05 20:01:00,35.0,30.0,29.91,East,90,3.0,-999.0,83,-99.99,,,-99.99,,2013-02-06 04:01:00,
2013-02-05 20:11:00,35.0,30.0,29.91,East,90,3.0,-999.0,83,-99.99,,,-99.99,,2013-02-06 04:11:00,
2013-02-05 20:21:00,35.0,31.0,29.92,SE,133,3.0,-999.0,84,-99.99,,,-99.99,,2013-02-06 04:21:00,
2013-02-05 20:31:00,36.0,31.0,29.92,ESE,106,4.0,-999.0,81,-99.99,,,-99.99,,2013-02-06 04:31:00,
2013-02-05 20:41:00,36.0,31.0,29.92,ESE,106,4.0,-999.0,81,-99.99,,,-99.99,,2013-02-06 04:41:00,
2013-02-05 20:51:00,35.0,30.0,29.92,East,86,4.0,-999.0,82,-99.99,,,-99.99,,2013-02-06 04:51:00,
2013-02-05 21:01:00,36.0,30.0,29.92,East,96,2.0,-999.0,80,-99.99,,,-99.99,,2013-02-06 05:01:00,
2013-02-05 21:11:00,36.0,30.0,29.92,East,96,2.0,-999.0,80,-99.99,,,-99.99,,2013-02-06 05:11:00,
2013-02-05 21:22:00,36.0,30.0,29.93,ESE,103,2.0,-999.0,80,-99.99,,,-99.99,,2013-02-06 05:22:00,
2013-02-05 21:31:00,36.0,31.0,29.93,East,84,2.0,-999.0,81,-99.99,,,-99.99,,2013-02-06 05:31:00,
2013-02-05 21:41:00,36.0,31.0,29.93,East,84,2.0,-999.0,81,-99.99,,,-99.99,,2013-02-06 05:41:00,
2013-02-05 21:53:00,37.0,31.0,29.93,East,86,2.0,-999.0,80,-99.99,,,-99.99,,2013-02-06 05:53:00,
2013-02-05 22:01:00,37.0,31.0,29.93,East,86,2.0,-999.0,80,-99.99,,,-99.99,,2013-02-06 06:01:00,
2013-02-05 22:11:00,37.0,31.0,29.93,East,86,2.0,-999.0,80,-99.99,,,-99.99,,2013-02-06 06:11:00,
2013-02-05 22:21:00,37.0,31.0,29.94,ESE,118,2.0,-999.0,78,-99.99,,,-99.99,,2013-02-06 06:21:00,
2013-02-05 22:31:00,37.0,31.0,29.95,NW,317,1.0,-999.0,79,-99.99,,,-99.99,,2013-02-06 06:31:00,
2013-02-05 22:42:00,37.0,31.0,29.95,NW,317,1.0,-999.0,79,-99.99,,,-99.99,,2013-02-06 06:42:00,
2013-02-05 22:52:00,35.0,30.0,29.95,SE,129,1.0,-999.0,83,-99.99,,,-99.99,,2013-02-06 06:52:00,
2013-02-05 23:01:00,35.0,30.0,29.96,East,86,0.0,-999.0,83,-99.99,,,-99.99,,2013-02-06 07:01:00,
2013-02-05 23:11:00,35.0,30.0,29.96,East,86,0.0,-999.0,83,-99.99,,,-99.99,,2013-02-06 07:11:00,
2013-02-05 23:21:00,34.0,30.0,29.96,East,101,1.0,-999.0,85,-99.99,,,-99.99,,2013-02-06 07:21:00,
2013-02-05 23:32:00,35.0,31.0,29.96,SW,219,1.0,-999.0,84,-99.99,,,-99.99,,2013-02-06 07:32:00,
2013-02-05 23:41:00,35.0,31.0,29.96,SW,219,1.0,-999.0,84,-99.99,,,-99.99,,2013-02-06 07:41:00,
2013-02-05 23:52:00,35.0,30.0,29.96,East,88,1.0,-999.0,83,-99.99,,,-99.99,,2013-02-06 07:52:00,